Location: C�an Torras
(41.5052°N, 1.9280°E)
Time: 21:52:38
(UTC+00:00)

ERS-2 - Pass Details

Date: 20 January 2021
Orbit: 492 x 497 km, 98.6° (Epoch: 03 March)

Event Time Altitude Azimuth Distance (km) Brightness Sun altitude
Exits shadow 17:41:49 - 31° (NNE) 2,018 4.8 -9.2°
Reaches altitude 10° 17:42:40 10° 36° (NE) 1,695 4.3 -9.3°
Maximum altitude 17:45:53 29° 98° (E) 932 3.0 -9.9°
Drops below altitude 10° 17:49:04 10° 160° (SSE) 1,680 4.8 -10.5°
Sets 17:51:18 0° 172° (S) 2,556 5.8 -10.9°
